| time (UTC) | temp F | wind direction | speed knots | gust knots | rain 1hr in | rain 24hr in | rain mn in | humidity % | barometer mb |
| 20260503013404 | 63 | 238 | 0.0 | 5.2 | 0.00 | 0.00 | 0.00 | 12 | 1017.2 |
| 20260503012904 | 63 | 226 | 0.9 | 5.2 | 0.00 | 0.00 | 0.00 | 12 | 1017.2 |
| 20260503011404 | 63 | 215 | 0.9 | 2.6 | 0.00 | 0.00 | 0.00 | 13 | 1017.2 |
| 20260503010904 | 63 | 216 | 4.3 | 7.8 | 0.00 | 0.00 | 0.00 | 13 | 1017.2 |
| 20260503010407 | 64 | 222 | 1.7 | 4.3 | 0.00 | 0.00 | 0.00 | 12 | 1017.2 |
| 20260503005904 | 64 | 229 | 2.6 | 6.1 | 0.00 | 0.00 | 0.00 | 11 | 1017.2 |
| 20260503005403 | 65 | 229 | 1.7 | 5.2 | 0.00 | 0.00 | 0.00 | 9 | 1017.2 |
| 20260503004904 | 65 | 220 | 0.0 | 0.9 | 0.00 | 0.00 | 0.00 | 9 | 1017.2 |
| 20260503004404 | 65 | 220 | 0.0 | 2.6 | 0.00 | 0.00 | 0.00 | 9 | 1017.3 |
| 20260503003904 | 66 | 216 | 1.7 | 5.2 | 0.00 | 0.00 | 0.00 | 8 | 1017.4 |
| 20260503003404 | 66 | 215 | 5.2 | 8.7 | 0.00 | 0.00 | 0.00 | 10 | 1017.3 |
| 20260503002404 | 66 | 212 | 4.3 | 12.2 | 0.00 | 0.00 | 0.00 | 8 | 1017.4 |
| 20260503001904 | 66 | 209 | 5.2 | 10.4 | 0.00 | 0.00 | 0.00 | 10 | 1017.3 |
| 20260503001404 | 67 | 208 | 5.2 | 8.7 | 0.00 | 0.00 | 0.00 | 7 | 1017.3 |
| 20260503000904 | 67 | 217 | 2.6 | 7.0 | 0.00 | 0.00 | 0.00 | 8 | 1017.3 |
| 20260503000404 | 67 | 215 | 4.3 | 8.7 | 0.00 | 0.00 | 0.00 | 9 | 1017.3 |
| 20260502235904 | 67 | 209 | 2.6 | 7.0 | 0.00 | 0.00 | 0.00 | 9 | 1017.4 |
| 20260502235404 | 67 | 219 | 6.1 | 12.2 | 0.00 | 0.00 | 0.00 | 9 | 1017.5 |
| 20260502234904 | 67 | 225 | 6.1 | 8.7 | 0.00 | 0.00 | 0.00 | 9 | 1017.5 |
| 20260502234404 | 67 | 220 | 3.5 | 7.0 | 0.00 | 0.00 | 0.00 | 7 | 1017.5 |
| 20260502233404 | 68 | 213 | 4.3 | 7.8 | 0.00 | 0.00 | 0.00 | 7 | 1017.5 |
| 20260502232911 | 68 | 232 | 2.6 | 6.1 | 0.00 | 0.00 | 0.00 | 6 | 1017.6 |
| 20260502231904 | 67 | 274 | 1.7 | 6.1 | 0.00 | 0.00 | 0.00 | 8 | 1017.7 |
| 20260502230904 | 67 | 230 | 3.5 | 7.8 | 0.00 | 0.00 | 0.00 | 6 | 1017.6 |
| 20260502225904 | 67 | 216 | 1.7 | 6.1 | 0.00 | 0.00 | 0.00 | 8 | 1017.6 |
| 20260502225404 | 67 | 215 | 0.9 | 5.2 | 0.00 | 0.00 | 0.00 | 8 | 1017.7 |
| 20260502224903 | 68 | 215 | 1.7 | 7.8 | 0.00 | 0.00 | 0.00 | 9 | 1017.8 |
| 20260502224404 | 68 | 209 | 0.9 | 6.1 | 0.00 | 0.00 | 0.00 | 5 | 1017.9 |
| 20260502223404 | 69 | 234 | 2.6 | 6.1 | 0.00 | 0.00 | 0.00 | 7 | 1018.0 |
| 20260502222905 | 68 | 223 | 0.9 | 10.4 | 0.00 | 0.00 | 0.00 | 8 | 1018.1 |
| 20260502222404 | 68 | 219 | 5.2 | 10.4 | 0.00 | 0.00 | 0.00 | 5 | 1018.2 |
| 20260502221404 | 69 | 227 | 1.7 | 7.0 | 0.00 | 0.00 | 0.00 | 8 | 1018.3 |
| 20260502220904 | 69 | 252 | 1.7 | 6.1 | 0.00 | 0.00 | 0.00 | 5 | 1018.4 |
| 20260502220404 | 68 | 253 | 0.9 | 4.3 | 0.00 | 0.00 | 0.00 | 5 | 1018.5 |
| 20260502215904 | 68 | 256 | 0.9 | 6.1 | 0.00 | 0.00 | 0.00 | 6 | 1018.5 |
| 20260502215419 | 68 | 241 | 1.7 | 5.2 | 0.00 | 0.00 | 0.00 | 8 | 1018.6 |
| 20260502214904 | 68 | 253 | 1.7 | 2.6 | 0.00 | 0.00 | 0.00 | 7 | 1018.7 |
| 20260502214404 | 68 | 231 | 0.9 | 5.2 | 0.00 | 0.00 | 0.00 | 8 | 1018.7 |
| 20260502213904 | 68 | 241 | 5.2 | 10.4 | 0.00 | 0.00 | 0.00 | 7 | 1018.8 |
| 20260502212904 | 68 | 228 | 6.1 | 10.4 | 0.00 | 0.00 | 0.00 | 9 | 1018.8 |
| 20260502212404 | 68 | 216 | 4.3 | 12.2 | 0.00 | 0.00 | 0.00 | 10 | 1018.9 |
| 20260502211904 | 68 | 219 | 2.6 | 7.0 | 0.00 | 0.00 | 0.00 | 8 | 1018.9 |
| 20260502211404 | 68 | 237 | 3.5 | 7.8 | 0.00 | 0.00 | 0.00 | 9 | 1018.9 |
| 20260502210904 | 68 | 217 | 2.6 | 8.7 | 0.00 | 0.00 | 0.00 | 9 | 1018.9 |
| 20260502210405 | 68 | 208 | 2.6 | 8.7 | 0.00 | 0.00 | 0.00 | 9 | 1019.0 |
| 20260502205904 | 68 | 216 | 6.1 | 10.4 | 0.00 | 0.00 | 0.00 | 9 | 1019.0 |
| 20260502205404 | 68 | 228 | 0.9 | 6.1 | 0.00 | 0.00 | 0.00 | 8 | 1019.1 |
| 20260502204404 | 68 | 227 | 4.3 | 10.4 | 0.00 | 0.00 | 0.00 | 11 | 1019.3 |
| 20260502203904 | 67 | 229 | 2.6 | 7.8 | 0.00 | 0.00 | 0.00 | 11 | 1019.3 |
| 20260502203404 | 67 | 206 | 1.7 | 7.8 | 0.00 | 0.00 | 0.00 | 9 | 1019.3 |
| 20260502202904 | 67 | 193 | 1.7 | 7.8 | 0.00 | 0.00 | 0.00 | 10 | 1019.4 |
| 20260502202404 | 67 | 209 | 5.2 | 8.7 | 0.00 | 0.00 | 0.00 | 12 | 1019.5 |
| 20260502201905 | 67 | 315 | 0.9 | 10.4 | 0.00 | 0.00 | 0.00 | 10 | 1019.5 |
| 20260502201405 | 67 | 205 | 1.7 | 13.9 | 0.00 | 0.00 | 0.00 | 11 | 1019.7 |
| 20260502200904 | 66 | 225 | 4.3 | 10.4 | 0.00 | 0.00 | 0.00 | 11 | 1019.6 |
| 20260502200404 | 66 | 222 | 2.6 | 10.4 | 0.00 | 0.00 | 0.00 | 11 | 1019.7 |
| 20260502195904 | 66 | 217 | 6.1 | 12.2 | 0.00 | 0.00 | 0.00 | 9 | 1019.8 |
| 20260502195404 | 66 | 217 | 7.8 | 12.2 | 0.00 | 0.00 | 0.00 | 10 | 1019.8 |
| 20260502194903 | 66 | 204 | 0.9 | 2.6 | 0.00 | 0.00 | 0.00 | 8 | 1019.7 |
| 20260502194404 | 65 | 201 | 2.6 | 8.7 | 0.00 | 0.00 | 0.00 | 10 | 1019.9 |
| 20260502193404 | 66 | 142 | 0.9 | 2.6 | 0.00 | 0.00 | 0.00 | 8 | 1019.9 |
| 20260502192404 | 66 | 152 | 0.9 | 10.4 | 0.00 | 0.00 | 0.00 | 9 | 1020.0 |
| 20260502191904 | 66 | 216 | 0.9 | 7.8 | 0.00 | 0.00 | 0.00 | 10 | 1020.1 |
| 20260502191404 | 66 | 214 | 2.6 | 11.3 | 0.00 | 0.00 | 0.00 | 10 | 1020.2 |
| 20260502190904 | 65 | 200 | 5.2 | 8.7 | 0.00 | 0.00 | 0.00 | 7 | 1020.2 |
| 20260502190404 | 65 | 200 | 3.5 | 8.7 | 0.00 | 0.00 | 0.00 | 8 | 1020.4 |
| 20260502185904 | 65 | 200 | 2.6 | 10.4 | 0.00 | 0.00 | 0.00 | 11 | 1020.4 |
| 20260502185404 | 65 | 233 | 1.7 | 8.7 | 0.00 | 0.00 | 0.00 | 8 | 1020.4 |
| 20260502184904 | 65 | 233 | 0.9 | 8.7 | 0.00 | 0.00 | 0.00 | 10 | 1020.6 |
| 20260502183904 | 65 | 197 | 0.0 | 5.2 | 0.00 | 0.00 | 0.00 | 10 | 1020.7 |
| 20260502183404 | 65 | 229 | 0.9 | 7.0 | 0.00 | 0.00 | 0.00 | 11 | 1020.7 |
| 20260502182904 | 65 | 210 | 1.7 | 6.1 | 0.00 | 0.00 | 0.00 | 11 | 1020.8 |
| 20260502181904 | 65 | 159 | 0.9 | 7.8 | 0.00 | 0.00 | 0.00 | 12 | 1021.0 |
| 20260502181403 | 65 | 240 | 0.9 | 7.0 | 0.00 | 0.00 | 0.00 | 11 | 1021.0 |
| 20260502180904 | 64 | 126 | 0.9 | 2.6 | 0.00 | 0.00 | 0.00 | 10 | 1021.1 |
| 20260502180404 | 64 | 313 | 0.0 | 0.0 | 0.00 | 0.00 | 0.00 | 11 | 1021.1 |
| 20260502163403 | 52 | 312 | 0.0 | 0.0 | 0.00 | 0.00 | 0.00 | 26 | 1022.3 |
| 20260502162404 | 50 | 312 | 0.0 | 1.7 | 0.00 | 0.00 | 0.00 | 28 | 1022.4 |
| 20260502161904 | 50 | 312 | 0.0 | 2.6 | 0.00 | 0.00 | 0.00 | 28 | 1022.4 |
| 20260502161404 | 50 | 312 | 0.0 | 0.0 | 0.00 | 0.00 | 0.00 | 30 | 1022.5 |
| 20260502160904 | 49 | 312 | 0.0 | 0.9 | 0.00 | 0.00 | 0.00 | 31 | 1022.5 |
| 20260502160404 | 48 | 312 | 0.0 | 0.0 | 0.00 | 0.00 | 0.00 | 33 | 1022.7 |
| 20260502151904 | 42 | 312 | 0.0 | 1.7 | 0.00 | 0.00 | 0.00 | 42 | 1023.1 |
| 20260502151405 | 41 | 312 | 0.0 | 2.6 | 0.00 | 0.00 | 0.00 | 44 | 1023.2 |
| 20260502150904 | 40 | 311 | 0.0 | 0.0 | 0.00 | 0.00 | 0.00 | 45 | 1023.2 |
| 20260502130404 | 25 | 311 | 0.0 | 0.0 | 0.00 | 0.00 | 0.00 | 70 | 1023.5 |
| 20260502123404 | 25 | 311 | 0.0 | 0.0 | 0.00 | 0.00 | 0.00 | 69 | 1023.3 |
| 20260502122404 | 25 | 311 | 0.0 | 0.0 | 0.00 | 0.00 | 0.00 | 69 | 1023.2 |
| 20260502121904 | 25 | 311 | 0.0 | 0.0 | 0.00 | 0.00 | 0.00 | 69 | 1023.2 |
| 20260502121404 | 25 | 311 | 0.0 | 0.0 | 0.00 | 0.00 | 0.00 | 69 | 1023.3 |
| 20260502115404 | 25 | 311 | 0.0 | 0.0 | 0.00 | 0.00 | 0.00 | 69 | 1023.2 |
| 20260502114904 | 25 | 311 | 0.0 | 0.0 | 0.00 | 0.00 | 0.00 | 69 | 1023.2 |
| 20260502114404 | 25 | 311 | 0.0 | 0.0 | 0.00 | 0.00 | 0.00 | 68 | 1023.2 |
| 20260502113904 | 26 | 311 | 0.0 | 0.0 | 0.00 | 0.00 | 0.00 | 68 | 1023.3 |
| 20260502112404 | 26 | 311 | 0.0 | 0.0 | 0.00 | 0.00 | 0.00 | 69 | 1023.3 |
| 20260502111903 | 26 | 311 | 0.0 | 0.0 | 0.00 | 0.00 | 0.00 | 69 | 1023.3 |
| 20260502111405 | 26 | 311 | 0.0 | 0.0 | 0.00 | 0.00 | 0.00 | 69 | 1023.3 |
| 20260502110404 | 27 | 311 | 0.0 | 0.0 | 0.00 | 0.00 | 0.00 | 69 | 1023.3 |
| 20260502105905 | 27 | 311 | 0.0 | 0.0 | 0.00 | 0.00 | 0.00 | 69 | 1023.3 |
| 20260502105404 | 27 | 311 | 0.0 | 0.0 | 0.00 | 0.00 | 0.00 | 68 | 1023.3 |
| 20260502104404 | 27 | 311 | 0.0 | 0.0 | 0.00 | 0.00 | 0.00 | 67 | 1023.2 |
| 20260502103404 | 27 | 311 | 0.0 | 0.0 | 0.00 | 0.00 | 0.00 | 67 | 1023.2 |
| 20260502102904 | 27 | 311 | 0.0 | 0.0 | 0.00 | 0.00 | 0.00 | 67 | 1023.2 |
| 20260502102404 | 27 | 311 | 0.0 | 0.0 | 0.00 | 0.00 | 0.00 | 66 | 1023.2 |
| 20260502101904 | 28 | 311 | 0.0 | 0.0 | 0.00 | 0.00 | 0.00 | 66 | 1023.2 |
| 20260502100904 | 28 | 311 | 0.0 | 0.0 | 0.00 | 0.00 | 0.00 | 66 | 1023.2 |
| 20260502100404 | 28 | 311 | 0.0 | 0.0 | 0.00 | 0.00 | 0.00 | 66 | 1023.2 |
| 20260502091404 | 29 | 311 | 0.0 | 0.0 | 0.00 | 0.00 | 0.00 | 63 | 1022.9 |
| 20260502090904 | 29 | 311 | 0.0 | 0.0 | 0.00 | 0.00 | 0.00 | 64 | 1022.9 |
| 20260502090404 | 29 | 311 | 0.0 | 0.0 | 0.00 | 0.00 | 0.00 | 63 | 1022.9 |
| 20260502071405 | 31 | 311 | 0.0 | 0.0 | 0.00 | 0.00 | 0.00 | 56 | 1022.5 |
| 20260502070904 | 32 | 311 | 0.0 | 0.0 | 0.00 | 0.00 | 0.00 | 55 | 1022.4 |
| 20260502070404 | 32 | 311 | 0.0 | 0.0 | 0.00 | 0.00 | 0.00 | 56 | 1022.3 |
| 20260502065904 | 32 | 311 | 0.0 | 0.0 | 0.00 | 0.00 | 0.00 | 55 | 1022.3 |
| 20260502065404 | 32 | 311 | 0.0 | 0.0 | 0.00 | 0.00 | 0.00 | 55 | 1022.3 |
| 20260502064904 | 33 | 311 | 0.0 | 0.0 | 0.00 | 0.00 | 0.00 | 55 | 1022.3 |
| 20260502064404 | 33 | 311 | 0.0 | 0.0 | 0.00 | 0.00 | 0.00 | 56 | 1022.2 |
| 20260502063904 | 33 | 311 | 0.0 | 0.0 | 0.00 | 0.00 | 0.00 | 56 | 1022.1 |
| 20260502063404 | 33 | 311 | 0.0 | 0.0 | 0.00 | 0.00 | 0.00 | 56 | 1022.1 |
| 20260502062904 | 33 | 311 | 0.0 | 0.0 | 0.00 | 0.00 | 0.00 | 56 | 1022.1 |
| 20260502061903 | 33 | 311 | 0.0 | 0.0 | 0.00 | 0.00 | 0.00 | 54 | 1022.1 |
| 20260502061404 | 33 | 311 | 0.0 | 0.0 | 0.00 | 0.00 | 0.00 | 52 | 1022.0 |
| 20260502060405 | 33 | 311 | 0.0 | 0.0 | 0.00 | 0.00 | 0.00 | 52 | 1022.0 |
| 20260502055904 | 34 | 311 | 0.0 | 0.0 | 0.00 | 0.00 | 0.00 | 52 | 1021.9 |
| 20260502055409 | 34 | 311 | 0.0 | 0.0 | 0.00 | 0.00 | 0.00 | 51 | 1021.9 |
| 20260502054919 | 34 | 311 | 0.0 | 0.0 | 0.00 | 0.00 | 0.00 | 50 | 1021.9 |
| 20260502054404 | 34 | 311 | 0.0 | 0.0 | 0.00 | 0.00 | 0.00 | 50 | 1021.9 |
| 20260502053405 | 35 | 311 | 0.0 | 0.0 | 0.00 | 0.00 | 0.00 | 53 | 1021.9 |
| 20260502052907 | 35 | 311 | 0.0 | 0.0 | 0.00 | 0.00 | 0.00 | 52 | 1021.8 |
| 20260502052404 | 36 | 311 | 0.0 | 0.0 | 0.00 | 0.00 | 0.00 | 49 | 1021.8 |
| 20260502051903 | 36 | 311 | 0.0 | 0.0 | 0.00 | 0.00 | 0.00 | 50 | 1021.8 |
| 20260502050904 | 37 | 311 | 0.0 | 0.0 | 0.00 | 0.00 | 0.00 | 49 | 1021.7 |
| 20260502050404 | 37 | 311 | 0.0 | 0.0 | 0.00 | 0.00 | 0.00 | 50 | 1021.8 |
| 20260502045904 | 37 | 311 | 0.0 | 0.0 | 0.00 | 0.00 | 0.00 | 48 | 1021.8 |
| 20260502045404 | 37 | 311 | 0.0 | 0.0 | 0.00 | 0.00 | 0.00 | 49 | 1021.7 |
| 20260502044904 | 38 | 311 | 0.0 | 0.0 | 0.00 | 0.00 | 0.00 | 48 | 1021.8 |
| 20260502044404 | 38 | 311 | 0.0 | 0.0 | 0.00 | 0.00 | 0.00 | 46 | 1021.7 |
| 20260502043904 | 39 | 311 | 0.0 | 0.0 | 0.00 | 0.00 | 0.00 | 46 | 1021.5 |
| 20260502043404 | 39 | 311 | 0.0 | 0.0 | 0.00 | 0.00 | 0.00 | 44 | 1021.5 |
| 20260502042904 | 39 | 311 | 0.0 | 0.0 | 0.00 | 0.00 | 0.00 | 43 | 1021.5 |
| 20260502042404 | 40 | 311 | 0.0 | 0.0 | 0.00 | 0.00 | 0.00 | 44 | 1021.5 |
| 20260502041903 | 40 | 311 | 0.0 | 0.0 | 0.00 | 0.00 | 0.00 | 45 | 1021.5 |
| 20260502041405 | 41 | 311 | 0.0 | 0.0 | 0.00 | 0.00 | 0.00 | 43 | 1021.5 |
| 20260502040903 | 41 | 311 | 0.0 | 0.0 | 0.00 | 0.00 | 0.00 | 42 | 1021.4 |
| 20260502040404 | 42 | 311 | 0.0 | 0.0 | 0.00 | 0.00 | 0.00 | 43 | 1021.4 |
| 20260502035404 | 43 | 311 | 0.0 | 0.0 | 0.00 | 0.00 | 0.00 | 41 | 1021.2 |
| 20260502034904 | 43 | 311 | 0.0 | 0.0 | 0.00 | 0.00 | 0.00 | 40 | 1021.1 |
| 20260502034404 | 44 | 311 | 0.0 | 0.0 | 0.00 | 0.00 | 0.00 | 40 | 1021.0 |
| 20260502033904 | 45 | 311 | 0.0 | 0.0 | 0.00 | 0.00 | 0.00 | 38 | 1020.9 |
| 20260502033404 | 45 | 311 | 0.0 | 0.0 | 0.00 | 0.00 | 0.00 | 38 | 1020.9 |
| 20260502032904 | 46 | 311 | 0.0 | 0.0 | 0.00 | 0.00 | 0.00 | 36 | 1020.7 |
| 20260502032404 | 46 | 311 | 0.0 | 0.0 | 0.00 | 0.00 | 0.00 | 34 | 1020.7 |
| 20260502031403 | 47 | 311 | 0.0 | 0.0 | 0.00 | 0.00 | 0.00 | 33 | 1020.5 |
| 20260502030904 | 47 | 311 | 0.0 | 0.0 | 0.00 | 0.00 | 0.00 | 30 | 1020.4 |
| 20260502030404 | 48 | 311 | 0.0 | 0.0 | 0.00 | 0.00 | 0.00 | 34 | 1020.3 |
| 20260502025904 | 48 | 311 | 0.0 | 0.0 | 0.00 | 0.00 | 0.00 | 24 | 1020.3 |
| 20260502025404 | 49 | 311 | 0.0 | 0.0 | 0.00 | 0.00 | 0.00 | 26 | 1020.2 |
| 20260502024904 | 50 | 311 | 0.0 | 0.0 | 0.00 | 0.00 | 0.00 | 21 | 1020.1 |
| 20260502024404 | 51 | 311 | 0.0 | 0.0 | 0.00 | 0.00 | 0.00 | 25 | 1020.0 |
| 20260502023904 | 51 | 311 | 0.0 | 0.0 | 0.00 | 0.00 | 0.00 | 26 | 1019.9 |
| 20260502023404 | 52 | 311 | 0.0 | 0.0 | 0.00 | 0.00 | 0.00 | 23 | 1019.7 |
| 20260502022903 | 53 | 311 | 0.0 | 0.0 | 0.00 | 0.00 | 0.00 | 24 | 1019.7 |
| 20260502022404 | 54 | 311 | 0.0 | 0.0 | 0.00 | 0.00 | 0.00 | 21 | 1019.6 |
| 20260502021904 | 54 | 311 | 0.0 | 0.0 | 0.00 | 0.00 | 0.00 | 26 | 1019.7 |
| 20260502021404 | 55 | 311 | 0.0 | 0.0 | 0.00 | 0.00 | 0.00 | 23 | 1019.7 |
| 20260502020904 | 56 | 311 | 0.0 | 0.0 | 0.00 | 0.00 | 0.00 | 23 | 1019.6 |
| 20260502015904 | 58 | 311 | 0.0 | 0.0 | 0.00 | 0.00 | 0.00 | 19 | 1019.6 |
| 20260502015404 | 59 | 311 | 0.0 | 0.0 | 0.00 | 0.00 | 0.00 | 16 | 1019.5 |
| 20260502013911 | 61 | 311 | 0.0 | 0.0 | 0.00 | 0.00 | 0.00 | 9 | 1019.5 |